EZY41VP EGNS-EGGP

Flight info

Callsign EZY41VP
Flight time 0h 20m
Altitude 13000
Route TIMIS Q39 DANDI DCT PENIL
Aircraft A319/M-SDE3FGHIRWY/LB1

Departure

Time 2026-04-26 14:00
Airport Isle of Man Airport (EGNS)

Arrival

Time 2026-04-26 14:20
Airport Liverpool John Lennon Airport (EGGP)
Time Latitude Longitude Altitude Speed Heading
2026-04-26 13:32 54.08628 -4.63267 46 ft 0 kts 228°
2026-04-26 13:52 54.08634 -4.63255 46 ft 4 kts 230°
2026-04-26 13:52 54.08651 -4.63221 41 ft 4 kts 228°
2026-04-26 13:52 54.08669 -4.63196 46 ft 3 kts 161°
2026-04-26 13:53 54.08674 -4.63198 46 ft 0 kts 150°
2026-04-26 13:55 54.08673 -4.63198 46 ft 1 kts 150°
2026-04-26 13:56 54.08652 -4.63177 43 ft 6 kts 150°
2026-04-26 13:56 54.08613 -4.63105 46 ft 11 kts 132°
2026-04-26 13:56 54.08543 -4.63024 44 ft 13 kts 166°
2026-04-26 13:56 54.08450 -4.62991 43 ft 8 kts 169°
2026-04-26 13:57 54.08409 -4.63026 43 ft 8 kts 245°
2026-04-26 13:57 54.08397 -4.63124 43 ft 9 kts 258°
2026-04-26 13:57 54.08384 -4.63234 43 ft 10 kts 258°
2026-04-26 13:57 54.08368 -4.63363 43 ft 13 kts 257°
2026-04-26 13:58 54.08346 -4.63538 43 ft 11 kts 255°
2026-04-26 13:58 54.08326 -4.63630 47 ft 8 kts 245°
2026-04-26 13:58 54.08285 -4.63766 43 ft 18 kts 239°
2026-04-26 13:58 54.08201 -4.63900 37 ft 19 kts 172°
2026-04-26 13:59 54.08157 -4.63747 36 ft 13 kts 79°
2026-04-26 13:59 54.08174 -4.63584 35 ft 15 kts 76°
2026-04-26 13:59 54.08200 -4.63404 37 ft 22 kts 77°
2026-04-26 14:00 54.08671 -4.59524 879 ft 144 kts 79°
2026-04-26 14:00 54.08864 -4.57934 1464 ft 147 kts 79°
2026-04-26 14:00 54.09000 -4.56749 1658 ft 161 kts 83°
2026-04-26 14:01 54.08536 -4.54142 2132 ft 186 kts 133°
2026-04-26 14:01 54.07471 -4.52692 2460 ft 212 kts 151°
2026-04-26 14:01 54.06067 -4.51627 3037 ft 226 kts 161°
2026-04-26 14:01 54.04599 -4.50726 4136 ft 224 kts 163°
2026-04-26 14:02 54.03111 -4.49853 5091 ft 227 kts 163°
2026-04-26 14:02 54.01596 -4.48968 6003 ft 231 kts 163°
2026-04-26 14:02 54.00060 -4.48066 6911 ft 234 kts 163°
2026-04-26 14:02 53.98510 -4.47152 7803 ft 236 kts 164°
2026-04-26 14:03 53.96973 -4.46246 8709 ft 238 kts 164°
2026-04-26 14:03 53.95398 -4.45318 9664 ft 240 kts 164°
2026-04-26 14:03 53.93826 -4.44390 10558 ft 243 kts 164°
2026-04-26 14:03 53.92211 -4.43440 11367 ft 247 kts 164°
2026-04-26 14:04 53.90575 -4.42475 12144 ft 252 kts 164°
2026-04-26 14:04 53.88932 -4.41311 12914 ft 260 kts 156°
2026-04-26 14:04 53.87448 -4.39738 13212 ft 279 kts 146°
2026-04-26 14:04 53.85934 -4.37372 13289 ft 313 kts 134°
2026-04-26 14:05 53.84627 -4.34358 13289 ft 325 kts 126°
2026-04-26 14:05 53.83348 -4.31168 13293 ft 328 kts 127°
2026-04-26 14:05 53.82053 -4.27977 13292 ft 328 kts 127°
2026-04-26 14:05 53.80753 -4.24800 13289 ft 328 kts 127°
2026-04-26 14:06 53.79446 -4.21619 13289 ft 328 kts 127°
2026-04-26 14:06 53.78136 -4.18445 13288 ft 328 kts 127°
2026-04-26 14:06 53.76832 -4.15286 13291 ft 328 kts 127°
2026-04-26 14:06 53.75541 -4.12152 13287 ft 329 kts 127°
2026-04-26 14:07 53.74233 -4.08975 13283 ft 329 kts 127°
2026-04-26 14:07 53.72921 -4.05799 13287 ft 329 kts 127°
2026-04-26 14:07 53.71606 -4.02621 13289 ft 329 kts 127°
2026-04-26 14:07 53.70291 -3.99445 13292 ft 329 kts 127°
2026-04-26 14:08 53.68996 -3.96307 13288 ft 330 kts 126°
2026-04-26 14:08 53.67928 -3.92867 13292 ft 332 kts 114°
2026-04-26 14:08 53.67073 -3.89240 13298 ft 332 kts 113°
2026-04-26 14:08 53.66215 -3.85625 13294 ft 332 kts 113°
2026-04-26 14:09 53.65352 -3.82002 13294 ft 332 kts 114°
2026-04-26 14:09 53.64484 -3.78385 13303 ft 331 kts 114°
2026-04-26 14:09 53.63635 -3.74853 13165 ft 321 kts 114°
2026-04-26 14:09 53.62812 -3.71423 12827 ft 317 kts 114°
2026-04-26 14:10 53.61942 -3.68021 12462 ft 314 kts 120°
2026-04-26 14:10 53.60723 -3.65028 12160 ft 306 kts 134°
2026-04-26 14:10 53.59241 -3.62552 12038 ft 294 kts 139°
2026-04-26 14:10 53.57784 -3.60198 11906 ft 285 kts 139°
2026-04-26 14:11 53.55019 -3.55707 11523 ft 273 kts 139°
2026-04-26 14:11 53.53660 -3.53508 11240 ft 270 kts 139°
2026-04-26 14:11 53.52304 -3.51317 10942 ft 269 kts 139°
2026-04-26 14:12 53.50957 -3.49141 10642 ft 267 kts 139°
2026-04-26 14:12 53.49619 -3.46978 10332 ft 266 kts 139°
2026-04-26 14:12 53.48372 -3.44693 10021 ft 266 kts 129°
2026-04-26 14:12 53.47447 -3.41965 9668 ft 267 kts 118°
2026-04-26 14:13 53.45881 -3.36473 9212 ft 252 kts 118°
2026-04-26 14:13 53.45167 -3.33997 8924 ft 243 kts 119°
2026-04-26 14:13 53.44432 -3.31468 8524 ft 239 kts 119°
2026-04-26 14:14 53.43648 -3.29025 8093 ft 235 kts 128°
2026-04-26 14:14 53.42527 -3.27076 7676 ft 228 kts 145°
2026-04-26 14:14 53.41330 -3.25492 7540 ft 214 kts 144°
2026-04-26 14:14 53.40214 -3.23983 7453 ft 199 kts 144°
2026-04-26 14:15 53.39151 -3.22538 7214 ft 195 kts 144°
2026-04-26 14:15 53.38099 -3.21113 6932 ft 194 kts 143°
2026-04-26 14:15 53.37082 -3.19737 6625 ft 194 kts 143°
2026-04-26 14:15 53.36001 -3.18280 6031 ft 203 kts 143°
2026-04-26 14:16 53.34889 -3.16779 5463 ft 208 kts 143°
2026-04-26 14:16 53.33749 -3.15241 4893 ft 213 kts 143°
2026-04-26 14:16 53.32745 -3.13389 4321 ft 219 kts 123°
2026-04-26 14:16 53.32226 -3.11007 3773 ft 224 kts 100°
2026-04-26 14:17 53.32180 -3.08397 3324 ft 222 kts 91°
2026-04-26 14:17 53.32238 -3.05853 2866 ft 216 kts 88°
2026-04-26 14:17 53.32373 -3.03335 2324 ft 214 kts 85°
2026-04-26 14:17 53.32527 -3.00889 1933 ft 206 kts 85°
2026-04-26 14:18 53.32683 -2.98556 1437 ft 203 kts 85°
2026-04-26 14:18 53.32845 -2.96264 1117 ft 194 kts 85°
2026-04-26 14:18 53.32976 -2.94080 967 ft 184 kts 88°
2026-04-26 14:18 53.33054 -2.92129 1005 ft 153 kts 89°
2026-04-26 14:19 53.33128 -2.90437 805 ft 140 kts 89°
2026-04-26 14:19 53.33192 -2.88851 518 ft 134 kts 91°
2026-04-26 14:19 53.33256 -2.87300 225 ft 130 kts 90°
2026-04-26 14:19 53.33329 -2.85826 102 ft 120 kts 90°
2026-04-26 14:20 53.33377 -2.84631 88 ft 83 kts 86°
2026-04-26 14:20 53.33412 -2.83874 92 ft 47 kts 86°
2026-04-26 14:20 53.33474 -2.83627 91 ft 16 kts 354°
2026-04-26 14:20 53.33578 -2.83653 89 ft 14 kts 322°
2026-04-26 14:21 53.33584 -2.83800 89 ft 13 kts 263°
2026-04-26 14:21 53.33577 -2.83953 89 ft 13 kts 264°
2026-04-26 14:21 53.33568 -2.84108 91 ft 15 kts 265°
2026-04-26 14:21 53.33558 -2.84288 89 ft 14 kts 264°
2026-04-26 14:22 53.33552 -2.84446 89 ft 14 kts 266°
2026-04-26 14:22 53.33545 -2.84593 89 ft 11 kts 265°
2026-04-26 14:22 53.33539 -2.84715 92 ft 10 kts 265°
2026-04-26 14:22 53.33533 -2.84845 89 ft 13 kts 265°
2026-04-26 14:23 53.33526 -2.84986 89 ft 11 kts 265°
2026-04-26 14:23 53.33575 -2.85067 89 ft 14 kts 355°
2026-04-26 14:23 53.33659 -2.85077 89 ft 9 kts 355°
2026-04-26 14:23 53.33675 -2.85144 89 ft 8 kts 264°
2026-04-26 14:24 53.33673 -2.85197 91 ft 2 kts 265°
2026-04-26 14:24 53.33673 -2.85200 91 ft 0 kts 265°